This demonstration page uses our WeatherBlox Daily Observations layout. Learn more.

41.55636, -103.73856

Hourly Observations for December 28, 2015

Temp ( °F °C ) Dew Point ( °F °C ) Humidity (%) Winds ( mph kmh ) Pressure ( in mb ) Visibility ( mi km ) Precip ( " mm )
12:53 am 00:53 Clear 1 -17 -2 -19 85 85 ESE 13 20 30.48 1032 10 16.09344 0 0
1:53 am 01:53 Clear 3 -16 0 -18 85 85 ESE 13 20 30.42 1030 10 16.09344 0 0
2:53 am 02:53 Clear 1 -17 -2 -19 85 85 E 7 11 30.42 1030 10 16.09344 0 0
3:53 am 03:53 Clear 3 -16 0 -18 85 85 ESE 9 15 30.36 1028 10 16.09344 0 0
4:53 am 04:53 Mostly Clear -2 -19 -6 -21 84 84 Calm 30.36 1028 7 11.265408 0 0
5:19 am 05:19 Mostly Cloudy -2 -19 -8 -22 77 77 Calm 30.36 1028 8 12.874752 0 0
5:26 am 05:26 Mostly Cloudy with Mist and Fog -2 -19 -6 -21 84 84 SSE 5 7 30.42 1030 1.5 2.414016 0 0
5:48 am 05:48 Cloudy with Freezing Fog 0 -18 -4 -20 84 84 E 6 9 30.39 1029 0.25 0.402336 0 0
5:53 am 05:53 Mostly Cloudy with Freezing Fog 0 -18 -4 -20 84 84 E 6 9 30.36 1028 0.25 0.402336 0 0
5:58 am 05:58 Mostly Cloudy with Freezing Fog 0 -18 -4 -20 84 84 E 5 7 30.36 1028 0.5 0.804672 0 0
6:13 am 06:13 Mostly Cloudy with Freezing Fog 0 -18 -2 -19 92 92 E 5 7 30.36 1028 0.25 0.402336 0 0
6:53 am 06:53 Mostly Cloudy with Freezing Fog 1 -17 0 -18 92 92 SSE 6 9 30.33 1027 0.25 0.402336 0 0
7:03 am 07:03 Mostly Cloudy with Freezing Fog 1 -17 0 -18 92 92 SE 7 11 30.33 1027 0.25 0.402336 0 0
7:53 am 07:53 Mostly Cloudy with Freezing Fog 0 -18 -2 -19 92 92 ESE 8 13 30.36 1028 0 0 0 0
8:53 am 08:53 Mostly Cloudy with Freezing Fog 1 -17 -2 -19 85 85 ESE 7 11 30.33 1027 0 0 0 0
9:33 am 09:33 Cloudy with Freezing Fog 1 -17 1 -17 100 100 ESE 6 9 30.3 1026 0.25 0.402336 0 0
9:53 am 09:53 Cloudy with Freezing Fog 3 -16 1 -17 92 92 E 3 6 30.27 1025 0.5 0.804672 0 0
10:01 am 10:01 Mostly Cloudy with Mist and Fog 5 -15 5 -15 100 100 Calm 30.27 1025 2 3.218688 0 0
10:07 am 10:07 Partly Cloudy with Mist and Fog 7 -14 7 -14 100 100 Calm 30.21 1023 5 8.04672 0 0
10:53 am 10:53 Sunny 10 -12 7 -14 85 85 ESE 6 9 30.15 1021 10 16.09344 0 0
11:53 am 11:53 Sunny 12 -11 7 -14 79 79 ESE 13 20 30.09 1019 10 16.09344 0.001 0.001
12:53 pm 12:53 Sunny 14 -10 9 -13 79 79 ESE 10 17 30.06 1018 10 16.09344 0 0
1:53 pm 13:53 Sunny 16 -9 9 -13 73 73 E 8 13 30.03 1017 10 16.09344 0 0
2:53 pm 14:53 Sunny 16 -9 9 -13 73 73 Calm 30.03 1017 10 16.09344 0 0
3:53 pm 15:53 Sunny 12 -11 7 -14 79 79 ESE 7 11 30.06 1018 10 16.09344 0 0
4:53 pm 16:53 Clear 9 -13 3 -16 78 78 ESE 6 9 30.09 1019 10 16.09344 0 0
5:53 pm 17:53 Clear 7 -14 3 -16 85 85 N 3 6 30.15 1021 9 14.484096 0 0
6:53 pm 18:53 Clear 3 -16 0 -18 85 85 N 5 7 30.18 1022 10 16.09344 0 0
7:21 pm 19:21 Mostly Clear 1 -17 -4 -20 78 78 NNE 6 9 30.21 1023 9 14.484096 0 0
7:53 pm 19:53 Clear 0 -18 -2 -19 92 92 Calm 30.21 1023 10 16.09344 0 0
8:53 pm 20:53 Clear 1 -17 -2 -19 85 85 N 7 11 30.21 1023 9 14.484096 0 0
9:53 pm 21:53 Clear 1 -17 -4 -20 78 78 N 3 6 30.24 1024 10 16.09344 0 0
10:53 pm 22:53 Clear 0 -18 -4 -20 84 84 WNW 6 9 30.24 1024 9 14.484096 0 0
11:53 pm 23:53 Clear -2 -19 -8 -22 77 77 NNW 6 9 30.27 1025 9 14.484096 0 0

Powered by AerisWeather